STARLINK-32371, 60916

Orbit data source: Space-Track

STARLINK-32371, 60916 is a payload satellite owned by SpaceX/Seattle (US) in LEO that was launched on Sat, 31 Aug 2024 UTC via an FALCON 9 launch vehicle from the Air Force Eastern Test Range (AFETR). Payload-class satellites include a variety of spacecraft equipped with specific instruments for various scientific and technological missions. These include communications satellites like Starlink; space stations such as the ISS; scientific satellites like the Hubble; Earth observation satellites from companies like Planet Labs, Umbra, and HawkEye 360; GPS; miniature CubeSats for education and research; and military/defense satellites.

Loading next visibility...
Identifier
60916, 2024-154P
Orbit
LEO
Country
Flag of USUS
Related business
Manufacturer
SpaceX/Seattle
Mission
Operational Commercial Communications
Bus & Motor
STARLINK V2M, Unknown motor
Mass
730 kg wet, ~700 kg dry
Launch date (UTC)
2024-08-31 (2 years ago)
Launch vehicle
FALCON 9
Launch site
Air Force Eastern Test Range (AFETR)
Object type
Payload
Rocket body
Debris
Shape & HBR
Box + 2 Pan, 17.7 m
Radar Cross Section
33.884 m², Large (>1 m²)

Expand to show TLE details & history
Last TLE update: 1 day ago

TLE from 1 day ago
0 STARLINK-32371
1 60916U 24154P   26175.18243299 -.00000824  00000-0 -14787-4 0  9994
2 60916  53.1606 148.9010 0001455  93.2637 266.8531 15.31703227102648
Epoch: 2026-06-24T04:22Z
TLE epoch observation values (Epoch: 2026-06-24T04:22:42.210Z)
Latitude
-0.00001°
Longitude
170.88181°
Altitude
471.686 km
Speed
7.631 km/s
True Right ascension
09h 55m 36s
True Declination
0° 00' 00"
Sunlit
Object was in daylight at epoch
Visualization orbit readout
Latitude
Unknown
Longitude
Unknown
Altitude
Unknown
Speed
Unknown
Apparent Right ascension
Unknown
Apparent Declination
Unknown
Sunlit
N/A
Visualization observer readout
Local Sidereal Time
17:00:26
Azimuth
Unknown
Elevation
Unknown
Doppler factor
Unknown
Orbital elements
Apogee altitude
471.983 km
Perigee altitude
469.99 km
Semi-major axis
6,849.124 km
Eccentricity
0.00015
Inclination
53.1606°
RAAN
148.901°
Arg. of periapsis
93.2637°
True anomaly
266.83645°
Mean anomaly
266.8531°
Eccentric anomaly
266.84478°
Mean motion
3.82905 °/min
Orbital period
94.02 mins
BSTAR
-0.000014787
Loading maneuver chart data...
Computing Atmospheric mass density...
Loading historical data...
Loading historical data...
Loading historical data...
Loading historical data...
Loading historical data...
Loading historical data...
Loading historical data...

Documentation

Showing up to 5 results
|